Vertical_Velocity
1 3 2 -0 2 1 -3 -5 3 -3 -2 2 -1 1 -0 -1 -1 2 -1 0 1 1 1 -1 -2 2 -1 -1 1 2 -1 -2 -4 -3 -0 -2 -1 1 -2 -3 1 -0 0 -1 1
-5 -3 1 2 -5 -1 -2 -3 4 -2 3 -2 -2 0 0 1 -3 1 -2 1 2 1 1 0 -2 -1 2 0 -1 -1 1 -0 -1 -1 -2 -2 -3 -2 1 -1 -3 -1 0 0 3
4 5 3 0 -2 -2 -2 0 -1 2 -3 -3 2 -2 2 1 -0 -2 -0 1 1 1 0 -0 -0 1 0 1 0 2 0 0 -1 0 1 -1 -1 -2 -2 -0 1 1 -1 -2 -1
-10 5 5 1 -4 -3 1 -5 2 1 -3 -2 1 -1 3 -3 1 -0 -0 0 1 1 -2 -2 1 -0 1 -2 0 -1 0 4 0 -1 -2 -1 1 1 1 2 1 -0 0 0 -0
4 -0 -3 -3 -1 -2 -4 0 3 -1 0 -0 -2 -0 -1 -2 1 1 -1 0 1 -1 -1 -1 -2 1 2 -2 -0 2 0 2 2 -1 1 0 -3 -1 -1 2 3 2 0 -0 0
-2 -2 -2 -1 0 1 0 -1 -1 -1 2 -1 0 0 -1 0 -1 -0 -2 -1 -0 -2 -1 -1 0 0 -1 0 -3 1 2 1 1 -0 -1 1 1 0 -1 -2 2 3 3 1 0
-1 -2 -1 -2 -2 -1 1 1 2 1 -1 -0 0 2 1 2 -0 -0 -1 -0 2 -3 -1 -2 0 0 0 2 1 -1 1 0 -0 2 -1 1 -6 -2 2 -0 -2 -0 1 2 2
-1 -2 -1 0 1 2 1 2 -0 -1 0 -0 1 1 1 1 1 1 1 -0 1 -3 -2 0 -1 1 -0 -1 -0 1 0 -1 -2 1 -0 2 -5 1 1 1 0 -1 -1 -1 -0
-3 -2 -1 -1 -1 -1 -1 -2 1 -0 1 1 0 0 1 1 -1 -1 -0 -1 1 -1 1 -3 1 -1 0 0 1 -0 0 -1 1 1 2 1 -2 1 -2 -0 -0 1 1 1 1
-3 -2 -1 -1 -1 -2 -1 -0 -2 -1 -0 -0 2 1 0 1 0 0 1 -1 0 1 -0 -0 0 -1 -0 -0 -7 -1 1 -1 -0 -4 -1 -2 0 0 -1 0 0 -1 0 1 0
-1 -1 -1 -1 -2 -1 -1 2 0 -0 1 -1 -4 -1 -2 -0 -1 1 0 0 2 2 1 2 -1 -4 -0 -0 -1 0 1 1 0 2 -2 1 -3 3 1 -3 -4 -1 3 2 1
0 1 -1 -2 -2 -2 -1 -1 -1 -2 -8 -0 -3 -3 -2 -1 -0 0 2 1 2 2 3 1 -3 0 0 1 1 1 0 -1 -0 0 -0 -1 -7 2 -2 2 -2 2 2 1 1
-2 -1 -2 -0 -3 -1 -4 -4 -3 -1 1 -6 -2 0 -0 2 -0 -0 1 1 1 0 3 5 3 3 3 2 -0 0 -0 -1 0 -0 -0 -2 -18 -7 -4 4 0 -2 3 1 1
-2 -1 -1 -1 -1 0 -2 -2 -3 -2 -4 -1 -1 -1 0 -1 -2 -1 -0 1 1 4 3 1 2 2 2 1 2 4 -1 -1 -2 1 -2 -1 -16 -7 -4 -2 -1 -0 1 1 3
-2 -2 -1 -3 -2 -2 -1 -3 -2 -3 -4 -2 -1 -1 -1 -0 -1 -1 -1 2 -0 2 3 2 2 0 2 1 3 -2 1 0 -2 -0 -0 1 -1 -4 1 -4 -3 -1 2 3 4
-1 -0 -1 -2 -3 -2 -2 -3 -3 -3 -9 -1 -0 -1 -1 -0 0 -1 -1 2 -1 -3 -1 -1 2 1 0 1 0 2 1 0 -2 1 1 1 -0 -19 -1 -1 -3 -1 -1 2 3
-4 0 -0 -2 -3 -2 -2 -1 -3 -3 -3 -2 -2 -3 -3 -2 -2 0 1 -0 0 -3 -4 -0 -1 -0 0 1 1 0 2 -1 -3 -1 -7 1 3 -21 -1 -1 1 -0 0 3 2
-0 -3 -3 1 -0 -0 -4 -3 -2 0 1 1 -2 -3 -2 -0 -3 -3 -3 -1 2 0 -0 -1 -6 1 1 -0 -1 -0 -3 -3 -4 -1 -1 0 -8 -11 2 1 -0 2 -0 0 4
-3 3 -1 1 -0 -6 1 1 -5 -3 -5 -2 -2 -1 -3 -3 2 -1 -2 -1 -2 3 -1 -4 -4 0 1 -0 5 -1 -3 2 2 2 1 -3 -1 -4 1 1 1 2 3 4 5
1 -2 -1 -3 -1 0 12 -4 -5 1 -0 1 -2 -1 -3 -3 -1 -1 -1 -5 -4 -3 -2 2 -3 -0 -0 4 4 1 3 -1 4 -2 -0 -3 -6 -10 -2 1 1 1 2 0 -2
10 -0 -2 -3 -1 -1 -0 -8 -8 0 3 2 -4 0 1 1 -0 -3 -5 -4 -1 -2 2 -1 2 -2 2 -3 -1 0 -3 0 3 -1 -3 -1 -10 2 -1 1 -1 -0 1 1 0
-2 -0 -2 3 -1 -5 -7 -1 1 -0 5 0 2 -0 -3 4 1 4 -10 2 1 1 -1 -0 0 -4 -0 1 2 1 2 7 5 -3 -0 2 -29 1 -2 1 3 0 1 3 2
1 6 3 2 -5 -3 1 -1 2 -3 -2 -5 -0 2 4 1 5 0 3 1 6 3 -2 -3 0 -1 2 2 7 4 -1 5 4 4 -7 3 -8 -8 -2 1 0 1 1 2 2
30 18 2 -0 -2 -1 2 -7 -3 -4 -2 -1 -2 1 4 -1 6 -7 -0 4 3 5 9 8 -2 -7 -7 2 -5 -7 -2 -2 4 10 -5 -25 -11 8 5 5 5 2 1 -1 -1
27 -14 -8 -11 -10 -1 -0 4 -2 -5 4 -0 -13 1 1 5 3 -2 3 3 1 3 0 0 -2 2 5 4 3 -2 3 3 2 -5 6 -20 -13 23 1 0 1 2 0 -0 -3
2 -1 -1 -10 3 3 6 -12 -4 3 7 -1 -6 7 4 -4 -2 1 4 4 3 2 2 3 -1 -3 -5 -3 -1 -13 10 3 -4 2 -2 6 -13 -4 6 -1 -1 -4 -5 -2 1
23 11 30 -2 7 17 -11 -8 -5 9 -1 2 7 5 6 4 6 4 4 5 6 1 0 0 -1 -0 -3 -3 1 -4 -9 1 3 0 3 2 4 -0 3 1 1 3 -1 -1 -1
Height
3154 3152 3150 3150 3148 3147 3148 3147 3147 3147 3146 3145 3145 3145 3145 3147 3146 3146 3146 3148 3147 3146 3147 3148 3149 3150 3151 3152 3154 3153 3155 3154 3154 3156 3158 3158 3159 3160 3161 3162 3162 3164 3165 3167 3168
3153 3151 3150 3147 3146 3147 3146 3146 3145 3145 3144 3144 3144 3144 3145 3145 3146 3145 3147 3146 3146 3146 3148 3148 3149 3150 3151 3152 3153 3152 3153 3153 3153 3154 3155 3157 3158 3159 3159 3159 3161 3162 3163 3164 3166
3151 3150 3147 3146 3146 3145 3145 3145 3144 3143 3142 3142 3142 3142 3143 3143 3145 3144 3144 3144 3144 3146 3147 3148 3148 3149 3150 3151 3152 3151 3152 3151 3152 3152 3154 3155 3155 3156 3157 3158 3159 3160 3161 3162 3163
3152 3149 3146 3145 3145 3145 3143 3143 3142 3141 3141 3140 3141 3141 3141 3142 3146 3142 3142 3142 3143 3144 3145 3146 3147 3148 3148 3149 3150 3150 3150 3150 3150 3151 3151 3152 3153 3154 3155 3155 3156 3156 3157 3158 3159
3150 3147 3146 3145 3144 3143 3142 3142 3140 3138 3139 3139 3139 3139 3140 3141 3141 3140 3140 3141 3141 3142 3142 3143 3144 3144 3145 3146 3147 3146 3147 3148 3147 3148 3148 3149 3149 3149 3150 3151 3151 3152 3152 3153 3154
3150 3148 3147 3145 3144 3142 3141 3140 3139 3138 3137 3137 3136 3137 3138 3138 3137 3137 3138 3139 3139 3139 3139 3140 3141 3142 3142 3143 3144 3143 3143 3144 3143 3144 3145 3146 3145 3145 3146 3147 3147 3147 3147 3148 3149
3149 3147 3145 3144 3142 3141 3140 3138 3138 3137 3136 3135 3134 3135 3135 3136 3134 3135 3135 3135 3135 3135 3136 3137 3138 3139 3139 3139 3139 3139 3140 3140 3140 3140 3141 3142 3141 3140 3141 3142 3142 3143 3143 3143 3144
3148 3146 3144 3143 3142 3140 3139 3137 3136 3135 3134 3134 3133 3133 3133 3132 3132 3132 3132 3132 3132 3132 3133 3134 3134 3135 3135 3137 3136 3136 3136 3135 3136 3136 3136 3137 3137 3137 3136 3137 3137 3137 3138 3139 3139
3147 3145 3144 3142 3140 3139 3137 3136 3135 3134 3133 3132 3131 3131 3131 3130 3129 3129 3129 3129 3129 3129 3129 3130 3131 3131 3132 3132 3133 3132 3131 3131 3132 3131 3131 3132 3132 3131 3132 3132 3131 3131 3132 3133 3134
3146 3144 3142 3140 3138 3136 3135 3134 3132 3132 3130 3129 3128 3130 3128 3128 3126 3126 3126 3125 3126 3125 3126 3126 3126 3126 3127 3127 3127 3126 3126 3126 3127 3128 3127 3126 3127 3127 3126 3125 3125 3124 3124 3125 3127
3144 3142 3141 3139 3137 3135 3134 3133 3133 3131 3127 3126 3125 3124 3123 3123 3122 3121 3121 3120 3120 3121 3120 3120 3121 3119 3121 3121 3122 3123 3123 3123 3124 3123 3123 3122 3120 3122 3120 3116 3117 3117 3117 3118 3118
3141 3140 3138 3136 3135 3133 3131 3129 3127 3126 3122 3121 3120 3118 3117 3117 3115 3114 3116 3116 3115 3115 3114 3115 3114 3115 3116 3117 3118 3118 3119 3120 3119 3119 3118 3115 3112 3116 3112 3108 3108 3107 3107 3109 3109
3138 3137 3134 3133 3131 3130 3128 3126 3124 3121 3118 3115 3112 3111 3111 3111 3109 3109 3111 3109 3110 3110 3111 3112 3111 3111 3112 3112 3113 3114 3114 3115 3115 3114 3111 3107 3100 3104 3103 3100 3099 3097 3098 3097 3099
3136 3134 3131 3130 3131 3127 3125 3123 3121 3118 3113 3111 3108 3106 3107 3107 3107 3106 3106 3109 3109 3110 3110 3110 3108 3108 3108 3108 3109 3108 3109 3110 3110 3110 3107 3105 3096 3091 3092 3092 3091 3090 3090 3090 3092
3132 3131 3129 3126 3125 3124 3123 3120 3118 3117 3115 3110 3107 3107 3106 3108 3108 3106 3106 3106 3107 3108 3110 3107 3105 3105 3105 3106 3106 3105 3104 3104 3104 3104 3103 3098 3103 3075 3080 3081 3082 3082 3082 3084 3086
3126 3126 3124 3123 3122 3121 3119 3117 3116 3117 3109 3107 3105 3105 3105 3104 3104 3103 3105 3105 3105 3105 3105 3104 3103 3102 3102 3101 3102 3102 3101 3101 3100 3100 3098 3090 3094 3070 3071 3072 3073 3075 3076 3078 3080
3120 3120 3119 3118 3118 3116 3115 3115 3116 3110 3108 3106 3104 3104 3104 3103 3102 3101 3101 3101 3102 3101 3100 3100 3098 3098 3097 3097 3096 3097 3099 3100 3100 3098 3087 3083 3085 3065 3064 3065 3066 3068 3070 3072 3074
3113 3113 3113 3112 3112 3112 3111 3113 3112 3105 3104 3102 3102 3101 3100 3100 3098 3097 3096 3095 3096 3096 3095 3095 3092 3092 3091 3091 3091 3091 3095 3095 3096 3093 3086 3084 3070 3057 3059 3060 3060 3062 3064 3066 3068
3108 3105 3106 3107 3107 3107 3107 3106 3104 3102 3101 3100 3099 3095 3095 3095 3096 3094 3092 3089 3090 3091 3092 3089 3085 3084 3084 3084 3087 3084 3086 3086 3087 3086 3086 3072 3061 3058 3053 3054 3056 3058 3060 3063 3063
3099 3097 3097 3100 3100 3100 3100 3097 3098 3097 3097 3096 3095 3093 3090 3091 3092 3090 3086 3082 3083 3084 3085 3084 3084 3077 3078 3079 3079 3078 3080 3081 3083 3085 3083 3062 3057 3049 3049 3051 3053 3055 3055 3055 3055
3090 3088 3088 3091 3092 3090 3090 3089 3089 3091 3091 3091 3088 3087 3086 3085 3084 3083 3080 3077 3075 3077 3079 3079 3079 3073 3072 3070 3070 3072 3070 3071 3074 3074 3070 3067 3050 3046 3047 3048 3048 3048 3048 3048 3048
3081 3080 3079 3081 3082 3078 3078 3081 3083 3083 3084 3083 3080 3078 3077 3078 3076 3074 3069 3070 3068 3069 3070 3072 3070 3066 3065 3064 3064 3063 3060 3063 3063 3064 3063 3062 3048 3044 3044 3045 3045 3044 3043 3042 3040
3071 3070 3069 3072 3070 3070 3071 3071 3072 3072 3073 3072 3071 3070 3069 3069 3070 3063 3061 3060 3060 3060 3061 3060 3060 3060 3056 3056 3053 3052 3052 3054 3055 3056 3051 3057 3039 3037 3042 3041 3039 3037 3036 3034 3031
3059 3059 3058 3061 3060 3061 3063 3061 3061 3062 3063 3064 3061 3061 3060 3058 3058 3055 3053 3053 3053 3053 3053 3051 3050 3048 3046 3044 3045 3048 3048 3050 3050 3047 3044 3033 3038 3035 3036 3034 3032 3029 3026 3023 3020
3052 3048 3049 3047 3048 3051 3054 3052 3052 3054 3053 3052 3050 3050 3050 3049 3047 3046 3047 3045 3044 3046 3044 3045 3039 3040 3038 3039 3038 3038 3036 3040 3038 3037 3036 3024 3028 3030 3028 3026 3023 3020 3016 3013 3008
3041 3041 3039 3039 3041 3044 3043 3040 3042 3043 3044 3040 3040 3039 3039 3037 3037 3037 3038 3036 3037 3035 3037 3036 3032 3032 3030 3032 3032 3026 3027 3025 3023 3023 3020 3021 3013 3016 3015 3013 3010 3008 3005 3002 2999
3029 3029 3029 3030 3030 3032 3031 3032 3032 3034 3031 3030 3031 3030 3029 3029 3028 3028 3029 3029 3029 3027 3029 3029 3028 3028 3022 3024 3023 3013 3009 3010 3011 3010 3011 3009 3009 3007 3004 3002 3001 2998 2994 2991 2989